Location: Unspecified
(0.0000°N, 0.0000°E)
Time: 06:53:02
(UTC+00:00)

Altair - Pass Details

Date: 19 November 2019
Orbit: 1502 x 1682 km, 47.2° (Epoch: 12 December)

Event Time Altitude Azimuth Distance (km) Brightness Sun altitude
Rises 01:45:26 0° 254° (WSW) 4,725 - -54.8°
Reaches altitude 10° 01:49:46 10° 271° (W) 3,709 - -53.9°
Maximum altitude 01:55:49 19° 313° (NW) 3,021 - -52.6°
Drops below altitude 10° 02:01:49 10° 354° (N) 3,647 - -51.3°
Sets 02:06:05 0° 12° (NNE) 4,620 - -50.4°
